Regional Weather Roundup
Issued by NWS

Home | Current Version | Previous Version | Graphics & Text | Print | Product List | Glossary On
Versions: 1 2 3 4 5 6 7 8 9 10 11 12 13 14 15 16 17 18 19 20 21 22 23 24 25 26 27 28 29 30 31 32 33 34 35 36 37 38 39 40 41 42 43 44 45 46 47 48 49 50
000
ASUS43 KIND 162359
RWRIN

WEATHER ROUNDUP FOR INDIANA
NATIONAL WEATHER SERVICE INDIANAPOLIS IN
800 PM EDT WED APR 16 2014

NOTE: "FAIR" INDICATES FEW OR NO CLOUDS BELOW 12,000 FEET WITH NO
SIGNIFICANT WEATHER AND/OR OBSTRUCTIONS TO VISIBILITY.

* - STATION DOES NOT REPORT WEATHER SUCH AS PRECIPITATION OR FOG.

+ - STATION NOT QUALITY CONTROLLED BY THE NATIONAL WEATHER SERVICE.
    USE DATA WITH CAUTION...ESPECIALLY DEWPOINT AND RELATIVE
    HUMIDITY OBSERVATIONS.

INZ001>003-010>013-019-020-170100-
NORTHWEST INDIANA

CITY           SKY/WX    TMP DP  RH WIND       PRES   REMARKS
GARY /AIRPORT/ PTCLDY    50  21  32 SE23      30.17S
RENSSELAER +   CLEAR     48  21  34 SE3       30.18S
VALPARAISO     CLEAR     47  21  35 SE13G21   30.19S
6HR MIN TEMP:  46; 6HR MAX TEMP:  50;


$$

LMZ046-743>745-170100-
SOUTHERN LAKE MICHIGAN

STATION/POSITION TIME  TEMP WIND        PRES
                       AIR  DIR/SP/G
                 (UTC) (F)  (DEG/KT/KT) (MB)
MICHIGAN CITY    2300   49  120/ 16/ 26   N/A

$$

INZ004-005-014>016-021>024-170100-
NORTH CENTRAL INDIANA

CITY           SKY/WX    TMP DP  RH WIND       PRES   REMARKS
ELKHART        CLEAR     46  19  34 SE17      30.24
GOSHEN         CLEAR     47  23  38 SE15      30.24F
6HR MIN TEMP:  45; 6HR MAX TEMP:  50;

SOUTH BEND     CLEAR     47  21  35 SE17      30.22F
6HR MIN TEMP:  46; 6HR MAX TEMP:  50;


$$

INZ006>009-017-018-025>027-170100-
NORTHEAST INDIANA

CITY           SKY/WX    TMP DP  RH WIND       PRES   REMARKS
ANGOLA *+      CLEAR     43  25  49 SE9       30.28S
FORT WAYNE     MOCLDY    45  23  42 SE14      30.27F
6HR MIN TEMP:  43; 6HR MAX TEMP:  48;


$$

INZ028-029-035-036-043>045-051>053-170100-
WEST CENTRAL INDIANA

CITY           SKY/WX    TMP DP  RH WIND       PRES   REMARKS
GREENCASTLE +  MOCLDY    46  23  39 SE13G18   30.19S
LAFAYETTE      CLEAR     48  21  34 SE12G23   30.18F
6HR MIN TEMP:  46; 6HR MAX TEMP:  51;

TERRE HAUTE    MOCLDY    51  23  33 SE13      30.18R
6HR MIN TEMP:  48; 6HR MAX TEMP:  53;


$$

INZ030>032-037>040-046>048-054>057-064-065-170100-
CENTRAL INDIANA

CITY           SKY/WX    TMP DP  RH WIND       PRES   REMARKS
COLUMBUS       CLEAR     48  21  34 SE9       30.22F
INDIANAPOLIS   MOCLDY    47  21  35 SE14      30.20S
6HR MIN TEMP:  45; 6HR MAX TEMP:  50;

-EAGLE CREEK   MOCLDY    48  20  32 SE14G20   30.20S
6HR MIN TEMP:  44; 6HR MAX TEMP:  50;

KOKOMO *+      PTCLDY    46  25  42 SE18      30.21F
MT COMFORT *+  MOCLDY    46  23  39 SE13      30.22F
SHELBYVILLE    CLOUDY    49  24  37 SE12      30.22S
6HR MIN TEMP:  47; 6HR MAX TEMP:  52;


$$

INZ033-034-041-042-049-050-058-059-170100-
EAST CENTRAL INDIANA

CITY           SKY/WX    TMP DP  RH WIND       PRES   REMARKS
MUNCIE         PTCLDY    45  23  42 SE13      30.24F
6HR MIN TEMP:  44; 6HR MAX TEMP:  49;


$$

INZ060-061-067>069-081>083-085>088-170100-
SOUTHWEST INDIANA

CITY           SKY/WX    TMP DP  RH WIND       PRES   REMARKS
EVANSVILLE     MOCLDY    53  27  36 SE6       30.17F
6HR MIN TEMP:  48; 6HR MAX TEMP:  55;

HUNTINGBURG *+ PTCLDY    52  25  35 SE10      30.19S
6HR MIN TEMP:  48; 6HR MAX TEMP:  54;


$$

INZ062-063-066-070>080-084-089>092-170100-
SOUTH CENTRAL AND SOUTHEAST INDIANA

CITY           SKY/WX    TMP DP  RH WIND       PRES   REMARKS
BLOOMINGTON    CLOUDY    49  22  34 SE9       30.20R
6HR MIN TEMP:  46; 6HR MAX TEMP:  52;


$$




USA.gov is the U.S. government's official web portal to all federal, state and local government web resources and services.